Regional Weather Roundup
Issued by NWS

Home | Current Version | Previous Version | Graphics & Text | Print | Product List | Glossary On
Versions: 1 2 3 4 5 6 7 8 9 10 11 12 13 14 15 16 17 18 19 20 21 22 23 24 25 26 27 28 29 30 31 32 33 34 35 36 37 38 39 40 41 42 43 44 45 46 47 48 49 50
000
ASUS45 KTFX 271204
RWRMT
MONTANA HOURLY WEATHER ROUNDUP
NATIONAL WEATHER SERVICE GREAT FALLS MT
604 AM MDT FRI MAR 27 2015

NOTE: "FAIR" INDICATES FEW OR NO CLOUDS BELOW 12000 FEET WITH NO
SIGNIFICANT WEATHER AND/OR OBSTRUCTIONS TO VISIBILITY.

* THESE STATIONS ARE NOT UNDER NWS QUALITY CONTROL. THEY DO NOT
   REPORT WEATHER SUCH AS PRECIPITATION OR FOG.

MTZ001>007-043-271300-
WEST OF THE DIVIDE
CITY           SKY/WX    TMP DP  RH WIND       PRES   REMARKS
KALISPELL      FOG       30  28  92 CALM      30.19F VSB 1/2
MISSOULA       MOCLDY    34  32  92 CALM      30.24F
BUTTE          CLEAR     28  27  96 S3        30.25S
MULLAN PASS    CLEAR     39  37  93 S8        30.20F WCI  33
* ESSEX        N/A       31  30  96 N/A        N/A
* LINCOLN      N/A       42  36  79 NE3        N/A
* LOOKOUT PASS N/A       35  35 100 S2         N/A
* POLSON       N/A       38  38 100 N/A        N/A
* SEELEY LAKE  N/A       27  26  96 E1         N/A
* THOMP F APT  PTCLDY    35  28  76 N4G9       N/A
$$

MTZ008-052>055-271300-
SOUTHWEST MONTANA
CITY           SKY/WX    TMP DP  RH WIND       PRES   REMARKS
BOZEMAN        PTCLDY    30  28  92 SE8       30.20F WCI  22
DILLON         CLEAR     37  30  76 S8        30.24F WCI  31
* W YELLOWSTON CLEAR     25  24  96 N/A        N/A
* THREE FORKS  CLEAR     36  36 100 N/A        N/A
* TWIN BRIDGES CLEAR     34  28  79 S5         N/A   WCI  29
* BOULDER HILL N/A       46  27  48 S8G16      N/A
* HOMESTAKE PS N/A       40  31  70 W6         N/A   WCI  36
* MONIDA PASS  N/A       28  26  92 E7         N/A   WCI  21
* RAYNOLDS PAS N/A       29  19  66 SW9        N/A   WCI  21
* WHITEHALL    N/A       42  34  73 SW6        N/A
* WISE RIVER   N/A       30  28  92 SW4        N/A
$$

MTZ009>010-012-014-046-048-049-054-271300-
EAST SLOPES AND CENTRAL MONTANA
CITY           SKY/WX    TMP DP  RH WIND       PRES   REMARKS
CUT BANK       PTCLDY    48  34  59 W21       30.04S
GREAT FALLS    MOCLDY    41  30  65 SW12      30.06F
HELENA         MOCLDY    43  34  71 CALM      30.16S
MALMSTROM AFB  MOCLDY    43  32  65 SW5       30.07S
* DEARBORN     N/A       56  34  44 S1G8       N/A
* EAST GLACIER N/A       46  35  66 W32G38     N/A
* MONARCH      N/A       42  25  51 S10        N/A
* PENDROY      N/A       50  19  29 W12G17     N/A
* ROGERS PASS  N/A       44  34  68 E8G16      N/A
$$

MTZ011-013-016-021-035-040-045-047-050-051-271300-
NORTH CENTRAL MONTANA
CITY           SKY/WX    TMP DP  RH WIND       PRES   REMARKS
HAVRE          MOCLDY    45  37  74 SW13      30.00F
LEWISTOWN      PTCLDY    45  34  65 SW14      30.07F
* N BAR RANCH  CLEAR     50  32  50 W9        30.08S
* MALTA APT    MOCLDY    37  30  76 N/A        N/A
* CHESTER      N/A       47  36  66 W9         N/A
* DENTON       N/A       43  32  65 SW9        N/A
* GEYSER       N/A       45  28  51 W11        N/A
* JUDITH GAP   N/A       43  33  68 W6         N/A
* LOMA         N/A       43  34  71 W4         N/A
$$

MTZ017>020-022>027-061-062-271300-
NORTHEAST MONTANA
CITY           SKY/WX    TMP DP  RH WIND       PRES   REMARKS
GLASGOW        MOCLDY    36  30  79 W7        29.94F WCI  30
GLENDIVE       CLOUDY    36  30  79 S8        29.95F WCI  30
JORDAN         MOCLDY    43  37  79 W8        29.98F
SIDNEY         CLOUDY    36  32  85 S3        29.94F
WOLF POINT     MOCLDY    34  30  85 CALM      29.94S
* BEAVER HILL  N/A       38  33  82 S17        N/A   WCI  29
* CIRCLE       N/A       42  35  76 W1G6       N/A
* LINDSAY DVD  N/A       47  35  63 W20        N/A
* NAVAJO       N/A       32  31  96 SW1        N/A
* SACO         N/A       34  31  89 N/A        N/A
$$

MTZ028>042-056>058-271300-
SOUTHCENTRAL AND SOUTHEAST MONTANA
CITY           SKY/WX    TMP DP  RH WIND       PRES   REMARKS
BAKER          CLOUDY    36  30  79 S5        29.98F WCI  32
BILLINGS       MOCLDY    52  34  50 W14       30.10S
LIVINGSTON     PTCLDY    48  32  54 W13       30.17F
MILES CITY     MOCLDY    39  30  70 W9        30.00S WCI  33
* LAUREL APT   PTCLDY    46  32  58 N/A        N/A
* ROUNDUP APT  PTCLDY    46  34  63 SW5        N/A
* ALZADA       N/A       34  31  89 E1         N/A
* HYSHAM       N/A       48  32  54 W4         N/A
* LAME DEER    N/A       49  36  61 W8G14      N/A
* REED POINT   N/A       54  31  42 W11G17     N/A
* ROSCOE HILL  N/A       55  16  21 W8G17      N/A
$$

REGIONAL REPORTS...DAKOTAS
CITY           SKY/WX    TMP DP  RH WIND       PRES   REMARKS
WILLISTON      PTCLDY    36  28  73 S8        29.95F WCI  30
DICKINSON      CLOUDY    34  28  79 S18       29.97F WCI  23
CROSBY         PTCLDY    32  32 100 S15       29.94F WCI  22
WATFORD CITY   CLEAR     32  30  92 SE7       29.95F WCI  25
BISMARCK       CLOUDY    27  16  63 S13       30.15F WCI  16
GRAND FORKS    MOCLDY    12   9  88 S3        30.25F
FARGO          CLEAR     10   7  88 CALM      30.27F
BUFFALO SD     MOCLDY    32  28  85 S14       29.96F WCI  22
RAPID CITY     CLOUDY    34  28  79 SE8       30.05F WCI  27
$$

REGIONAL REPORTS...WYOMING/IDAHO/WASHINGTON
CITY           SKY/WX    TMP DP  RH WIND       PRES   REMARKS
GILLETTE       CLOUDY    45  37  74 W14       30.09R
SHERIDAN       CLOUDY    48  34  59 NW5       30.11S
CODY           CLEAR     54  28  37 W10G21    30.15R
YELLOWSTONE LA PTCLDY    21  19  92 CALM      30.37S
SALMON         CLEAR     34  28  79 CALM      30.30S
MULLAN PASS    CLEAR     39  37  93 S8        30.20S WCI  33
SAND POINT     FOG       37  37 100 CALM      30.17F VSB M1/4
SPOKANE        FOG       45  45 100 NE8       30.13F VSB 1

$$




USA.gov is the U.S. government's official web portal to all federal, state and local government web resources and services.